EW1098 Weather Reports


Display with metric or nautical units.
time (UTC)temp
F
wind
direction
speed
MPH
gust
MPH
rain 1hr
in
rain 24hr
in
rain mn
in
humidity
%
barometer
mb
20260504023057 64 198 7.0 13.0 0.00 0.00 0.00 51 1006.5
20260504021553 64 249 7.0 14.0 0.00 0.00 0.00 50 1006.4
20260504020107 64 238 8.0 14.0 0.00 0.00 0.00 49 1006.3
20260504014553 65 263 8.0 17.0 0.00 0.00 0.00 49 1006.1
20260504013049 65 217 8.0 17.0 0.00 0.00 0.00 48 1005.9
20260504011552 65 118 9.0 17.0 0.00 0.00 0.00 47 1005.7
20260504010054 66 267 6.0 15.0 0.00 0.00 0.00 46 1005.7
20260504004552 67 169 6.0 14.0 0.00 0.00 0.00 44 1005.8
20260504003055 68 225 9.0 19.0 0.00 0.00 0.00 42 1005.7
20260504001555 68 252 14.0 21.0 0.00 0.00 0.00 41 1005.7
20260504000054 68 244 14.0 21.0 0.00 0.00 0.00 41 1005.7
20260503234624 69 240 15.0 28.0 0.00 0.00 0.00 41 1005.7
20260503233056 68 236 12.0 21.0 0.00 0.00 0.00 41 1005.8
20260503231555 68 238 9.0 21.0 0.00 0.00 0.00 40 1005.9
20260503230055 68 226 9.0 20.0 0.00 0.00 0.00 40 1006.0
20260503224552 68 225 11.0 26.0 0.00 0.00 0.00 40 1006.2
20260503223057 67 105 11.0 21.0 0.00 0.00 0.00 40 1006.5
20260503221600 67 219 7.0 22.0 0.00 0.00 0.00 40 1006.7
20260503220057 66 217 13.0 27.0 0.00 0.00 0.00 41 1006.9
20260503214554 66 301 13.0 35.0 0.00 0.00 0.00 41 1007.0
20260503213054 65 282 10.0 25.0 0.00 0.00 0.00 40 1007.1
20260503211559 65 217 14.0 32.0 0.00 0.00 0.00 39 1007.4
20260503210053 66 164 13.0 36.0 0.00 0.00 0.00 39 1007.6
20260503204557 65 224 15.0 30.0 0.00 0.00 0.00 37 1008.1
20260503203058 65 342 15.0 32.0 0.00 0.00 0.00 39 1008.3
20260503201555 64 167 17.0 34.0 0.00 0.00 0.00 41 1008.5
20260503200055 63 299 10.0 27.0 0.00 0.00 0.00 43 1008.9
20260503194558 62 180 9.0 28.0 0.00 0.00 0.00 47 1009.0
20260503193053 61 263 10.0 23.0 0.00 0.00 0.00 49 1009.1
20260503191554 60 112 10.0 22.0 0.00 0.00 0.00 50 1009.2
20260503190056 58 116 14.0 25.0 0.00 0.00 0.00 51 1009.4
20260503184552 57 48 10.0 20.0 0.00 0.00 0.00 52 1009.7
20260503183051 55 179 9.0 17.0 0.00 0.00 0.00 56 1010.0
20260503181553 55 5 7.0 21.0 0.00 0.00 0.00 58 1010.3
20260503180059 54 256 11.0 25.0 0.00 0.00 0.00 58 1011.1
20260503174601 54 351 13.0 24.0 0.00 0.00 0.00 59 1011.7
20260503173104 54 19 8.0 24.0 0.00 0.00 0.00 61 1012.1
20260503171555 54 263 12.0 23.0 0.00 0.00 0.00 61 1012.4
20260503140110 51 242 9.0 24.0 0.00 0.00 0.00 55 1014.1
20260503110110 47 257 6.0 16.0 0.00 0.00 0.00 56 1014.1
20260503081553 48 221 7.0 16.0 0.00 0.00 0.00 50 1014.7
20260503071612 48 219 6.0 12.0 0.00 0.00 0.00 49 1015.0
20260503060110 49 223 9.0 16.0 0.00 0.00 0.00 46 1015.6
20260503054600 49 254 6.0 12.0 0.00 0.00 0.00 47 1015.7
20260503053051 49 219 4.0 10.0 0.00 0.00 0.00 47 1015.8
20260503051552 50 266 4.0 11.0 0.00 0.00 0.00 46 1015.9
20260503050054 50 199 8.0 16.0 0.00 0.00 0.00 45 1016.1
20260503044552 50 38 5.0 14.0 0.00 0.00 0.00 45 1016.1
20260503043052 50 216 6.0 15.0 0.00 0.00 0.00 45 1016.1
20260503041553 51 223 6.0 14.0 0.00 0.00 0.00 45 1016.3
20260503040113 51 250 6.0 14.0 0.00 0.00 0.00 45 1016.2
20260503034551 51 213 4.0 8.0 0.00 0.00 0.00 45 1016.2
20260503033052 51 230 5.0 9.0 0.00 0.00 0.00 44 1016.4
20260503031603 52 259 5.0 10.0 0.00 0.00 0.00 44 1016.4
20260503030050 52 192 5.0 11.0 0.00 0.00 0.00 44 1016.6
20260503024551 52 248 4.0 9.0 0.00 0.00 0.00 43 1016.6